Simultaneous Nadir Overpasses (SNOs) Predictions

Prediction of SNOs between AURA and NPP Satellite Orbit:

Table of predicted SNOs for the next 14.0 days since TLE Epoch: 8/18/2018
Index Date (AURA) Time (AURA) Lat,Lon (AURA) SZA (AURA ) Date (NPP) Time (NPP) Lat,Lon (NPP) SZA (NPP ) Distance(km) Time Diff (sec)
1 08/18/2018 11:25:12 -79.26, 83.87 99.88 08/18/2018 11:24:54 -79.26, 83.87 99.87 0.09 18
2 08/18/2018 12:14:31 79.53,-106.68 79.74 08/18/2018 12:15:30 79.54,-106.62 79.68 1.38 59
3 08/21/2018 02:52:15 79.12, 31.25 81.14 08/21/2018 02:51:08 79.13, 31.34 81.17 1.91 67
4 08/21/2018 03:41:36 -79.36,-159.60 99.19 08/21/2018 03:41:47 -79.36,-159.59 99.20 0.14 11
5 08/23/2018 19:08:40 79.22, 147.73 81.86 08/23/2018 19:08:02 79.23, 147.83 81.87 2.32 38
6 08/23/2018 19:58:01 -79.46, -43.08 98.47 08/23/2018 19:58:41 -79.46, -43.05 98.51 0.60 40
7 08/26/2018 11:25:04 79.35, -95.55 82.55 08/26/2018 11:24:55 79.36, -95.40 82.53 3.14 9
8 08/26/2018 12:14:26 -79.55, 73.42 97.73 08/26/2018 12:15:35 -79.55, 73.49 97.79 1.44 69
9 08/29/2018 02:52:10 -79.17,-148.46 96.32 08/29/2018 02:51:13 -79.18,-148.32 96.30 2.98 57
10 08/29/2018 03:41:31 79.36, 20.39 83.43 08/29/2018 03:41:52 79.35, 20.30 83.43 2.08 21
11 08/31/2018 19:08:36 -79.18, -32.53 95.42 08/31/2018 19:08:09 -79.17, -32.62 95.38 1.98 27




NCC Satellite Simultaneous Nadir Overpasses (SNOs) Prediction Service
